Location: Colonia Mina de C?rbuni
(46.1667°N, 22.7167°E)
Time: 15:34:28
(UTC+00:00)

S-56A Canister/Altair - Pass Details

Date: 20 April 2024
Orbit: 638 x 2488 km, 38.9° (Epoch: 26 May)

Event Time Altitude Azimuth Distance (km) Brightness Sun altitude
Rises 21:02:38 0° 274° (W) 4,303 11.7 -28.8°
Reaches altitude 10° 21:05:47 10° 262° (W) 3,596 11.1 -29.1°
Enters shadow 21:12:34 26° 215° (SW) 3,028 10.2 -29.5°
